STARLINK-32561, 62026

Orbit data source: Space-Track

STARLINK-32561, 62026 is a payload satellite owned by SpaceX/Seattle (US) in LEO that was launched on Mon, 18 Nov 2024 UTC via an FALCON 9 launch vehicle from the Air Force Western Test Range (AFWTR). Payload-class satellites include a variety of spacecraft equipped with specific instruments for various scientific and technological missions. These include communications satellites like Starlink; space stations such as the ISS; scientific satellites like the Hubble; Earth observation satellites from companies like Planet Labs, Umbra, and HawkEye 360; GPS; miniature CubeSats for education and research; and military/defense satellites.

Loading next visibility...
Identifier
62026, 2024-213U
Orbit
LEO
Country
Flag of USUS
Related business
Manufacturer
SpaceX/Seattle
Mission
Operational Commercial Communications
Bus & Motor
STARLINK V2M, Unknown motor
Mass
730 kg wet, ~700 kg dry
Launch date (UTC)
2024-11-18 (11 months ago)
Launch vehicle
FALCON 9
Launch site
Air Force Western Test Range (AFWTR)
Object type
Payload
Rocket body
Debris
Shape & HBR
Box + 2 Pan, 17.7 m
Radar Cross Section
33.884 m², Large (>1 m²)

Expand to show TLE details & history
Last TLE update: 17 hours ago

TLE from 17 hours ago
0 STARLINK-32561
1 62026U 24213U   25289.00616212  .00025251  00000-0  86132-3 0  9990
2 62026  53.1590 120.1267 0001091  87.7730 272.3396 15.30216891 51007
Epoch: 2025-10-16T00:08Z
TLE epoch observation values (Epoch: 2025-10-16T00:08:52.407Z)
Latitude
0.00002°
Longitude
93.13627°
Altitude
476.034 km
Speed
7.629 km/s
True Right ascension
08h 00m 30s
True Declination
0° 00' 00"
Sunlit
Object was in daylight at epoch
Visualization orbit readout
Latitude
Unknown
Longitude
Unknown
Altitude
Unknown
Speed
Unknown
Apparent Right ascension
Unknown
Apparent Declination
Unknown
Sunlit
N/A
Visualization observer readout
Local Sidereal Time
12:11:24
Azimuth
Unknown
Elevation
Unknown
Doppler factor
Unknown
Orbital elements
Apogee altitude
476.169 km
Perigee altitude
474.674 km
Semi-major axis
6,853.558 km
Eccentricity
0.00011
Inclination
53.159°
RAAN
120.1267°
Arg. of periapsis
87.773°
True anomaly
272.32711°
Mean anomaly
272.3396°
Eccentric anomaly
272.33335°
Mean motion
3.82533 °/min
Orbital period
94.11 mins
BSTAR
0.00086132
Loading maneuver chart data...
Computing Atmospheric mass density...
Loading historical data...
Loading historical data...
Loading historical data...
Loading historical data...
Loading historical data...
Loading historical data...
Loading historical data...

Documentation

Showing up to 5 results
|